Regional Weather Roundup
Issued by NWS Midland/Odessa, TX

Home | Current Version | Previous Version | Text Only | Print | Product List | Glossary On
Versions: 1 2 3 4 5 6 7 8 9 10 11 12 13 14 15 16 17 18 19 20 21 22 23 24 25 26 27 28 29 30 31 32 33 34 35 36 37 38 39 40 41 42 43 44 45 46 47 48 49 50
000
ASUS44 KMAF 060010
RWRMAF
MIDLAND AREA WEATHER ROUNDUP
NATIONAL WEATHER SERVICE MIDLAND TX
700 PM CDT SUN JUL 05 2015

...IN SOUTHWEST TEXAS AND SOUTHEAST NEW MEXICO...

CITY           SKY/WX    TMP DP  RH WIND       PRES   REMARKS
ALPINE         PTSUNNY   86  57  37 S8        30.09S
ANDREWS        PTSUNNY   92  61  36 S13G20    29.92S
ARTESIA        CLOUDY    90  61  37 S15G21    29.93S
BIG SPRING     MOSUNNY   94  64  37 SE18      29.93F
CARLSBAD       PTSUNNY   89  60  37 W10       29.89F
DRYDEN           N/A     90  66  45 S10G21    29.93R
FORT STOCKTON  CLOUDY    88  64  44 S15       29.93F
GUAD PASS      LGT RAIN  83  59  44 SW12      30.10F
HOBBS          MOSUNNY   93  54  26 SE10      29.94F
MARFA          PTSUNNY  N/A N/A N/A SE9       30.08S
MIDLAND AIRPK  MOSUNNY   92  62  35 S15       29.92S
MIDLAND INTL   SUNNY     92  64  39 S20G26    29.91S
ODESSA         SUNNY     90  64  42 S23       29.93S
PECOS          MOSUNNY   91  62  37 SE21G26   29.86F
PRESIDIO       FAIR      93  61  33 W10       29.91R
SEMINOLE       SUNNY     94  55  26 SE9       29.93F
SNYDER         SUNNY     89  68  49 S14       29.93F
WINK           MOSUNNY   93  64  38 SE17G25   29.87F
$$
...OTHER STATIONS IN TEXAS...

CITY           SKY/WX    TMP DP  RH WIND       PRES   REMARKS
ABILENE        MOSUNNY   90  62  39 S15G24    29.92S
AMARILLO       MOSUNNY   88  56  33 S16       29.94F
AUSTIN         MOSUNNY   87  72  60 S16G23    29.94F
BROWNSVILLE    PTSUNNY   86  77  74 SE22G28   29.95S
CORPUS CHRISTI MOSUNNY   86  75  69 SE23G31   29.94F
DALLAS FTW     MOSUNNY   91  67  44 S18G25    29.91F
DEL RIO        SUNNY     91  67  44 SE18G25   29.89S
EL PASO        MOSUNNY   90  58  33 W14       29.95F
HOUSTON INT    MOSUNNY   89  73  59 S9        29.98S
LUBBOCK        PTSUNNY   91  63  39 S14       29.94S
SAN ANGELO     SUNNY     91  63  39 S10       29.92F
SAN ANTONIO    MOSUNNY   88  71  57 SE16      29.94F
WACO           MOSUNNY   90  70  51 S18       29.93F
WICHITA FALLS  NOT AVBL
$$
...OTHER LOCATIONS IN NEW MEXICO...

CITY           SKY/WX    TMP DP  RH WIND       PRES   REMARKS
ALAMAGORDO     PTSUNNY   90  54  29 SW8       29.97S
ALBUQUERQUE    CLOUDY    71  62  73 SE15      30.07F
CANNON AFB     MOSUNNY   87  59  39 S9        29.96F
CLOVIS         MOSUNNY   88  55  33 SE13        N/A
HOLLOMAN AFB   PTSUNNY   90  54  29 S8        29.94S
ROSWELL        CLOUDY    90  57  32 SW8       29.92S
RUIDOSO        PTSUNNY   73  54  49 CALM      30.20S
SANTA FE       MOSUNNY   83  46  27 SW7       30.10S
TRUTH OR CONSE LGT RAIN  74  60  61 N12G37    30.02F
TUCUMCARI      MOSUNNY   94  52  24 S16G24    29.89F
$$


USA.gov is the U.S. government's official web portal to all federal, state and local government web resources and services.